Location: *
(43.7000°S, 168.7000°W)
Time: 14:20:18
(UTC+00:00)

Envisat - Pass Details

Date: 07 July 2020
Orbit: 764 x 766 km, 98.1° (Epoch: 04 August)

Event Time Altitude Azimuth Distance (km) Brightness Sun altitude
Rises 16:45:46 0° 9° (N) 3,224 6.5 -21.3°
Reaches altitude 10° 16:48:04 10° 7° (N) 2,306 5.7 -20.9°
Maximum altitude 16:53:09 72° 282° (WNW) 816 2.9 -20.0°
Enters shadow 16:57:32 15° 198° (SSW) 2,034 4.9 -19.2°
